Regional Weather Roundup
Issued by NWS

Home | Current Version | Previous Version | Text Only | Print | Product List | Glossary On
Versions: 1 2 3 4 5 6 7 8 9 10 11 12 13 14 15 16 17 18 19 20 21 22 23 24 25 26 27 28 29 30 31 32 33 34 35 36 37 38 39 40 41 42 43 44 45 46 47 48 49 50
000
ASUS44 KBMX 281210
RWRAL

ALABAMA REGIONAL WEATHER ROUNDUP
NATIONAL WEATHER SERVICE BIRMINGHAM AL
700 AM CDT FRI AUG 28 2015

NOTE: "FAIR" INDICATES FEW OR NO CLOUDS BELOW 12,000 FEET
WITH NO SIGNIFICANT WEATHER AND/OR OBSTRUCTIONS TO VISIBILITY.

THE REMARK "TC" DENOTES TEMPERATURE IN DEGREES CELSIUS.

ALZ001>011-014-016>018-020-281300-
NORTH ALABAMA

CITY           SKY/WX    TMP DP  RH WIND       PRES   REMARKS
MUSCLE SHOALS  CLEAR     62  59  90 E3        30.10R
6HR MIN TEMP:  61; 6HR MAX TEMP:  66;

HUNTSVILLE     CLEAR     66  62  87 CALM      30.10R
6HR MIN TEMP:  64; 6HR MAX TEMP:  71;

DECATUR        CLEAR     62  61  96 CALM      30.10R FOG
6HR MIN TEMP:  61; 6HR MAX TEMP:  67;

HALEYVILLE     FAIR      61  61 100 CALM      30.12R
6HR MIN TEMP:  60; 6HR MAX TEMP:  67;

GADSDEN        MOCLDY    64  61  88 CALM      30.09R
6HR MIN TEMP:  64; 6HR MAX TEMP:  70;

$$

ALZ012-013-022-023-030>036-040>044-281300-
WEST CENTRAL ALABAMA

CITY           SKY/WX    TMP DP  RH WIND       PRES   REMARKS
TUSCALOOSA     CLEAR     67  65  93 CALM      30.05R
6HR MIN TEMP:  66; 6HR MAX TEMP:  71;

$$

ALZ015-024>027-033>036-040>044-281300-
CENTRAL ALABAMA

CITY           SKY/WX    TMP DP  RH WIND       PRES   REMARKS
BIRMINGHAM     PTCLDY    71  66  84 NE3       30.09R
6HR MIN TEMP:  70; 6HR MAX TEMP:  74;

MONTGOMERY     CLEAR     72  66  81 NE6       30.03R
6HR MIN TEMP:  71; 6HR MAX TEMP:  73;

SHELBY CO ARPT CLEAR     69  65  86 CALM      30.06R
6HR MIN TEMP:  68; 6HR MAX TEMP:  72;

MAXWELL AFB    PTCLDY    71  68  90 N5        30.02R
6HR MIN TEMP:  70; 6HR MAX TEMP:  76;

GREENVILLE     FAIR      69  65  86 CALM      30.01R
6HR MIN TEMP:  67; 6HR MAX TEMP:  73;

$$

ALZ019-021-028-029-037-038-045>048-281300-
EAST CENTRAL ALABAMA

CITY           SKY/WX    TMP DP  RH WIND       PRES   REMARKS
ANNISTON       MOCLDY    68  64  87 NE3       30.09R FOG
6HR MIN TEMP:  67; 6HR MAX TEMP:  70;

ALEXANDER CITY CLEAR     69  67  92 CALM      30.07R
6HR MIN TEMP:  69; 6HR MAX TEMP:  74;

AUBURN         CLOUDY    71  70  96 E8        30.08R
6HR MIN TEMP:  70; 6HR MAX TEMP:  73;

$$

ALZ051>064-281300-
SOUTHWEST ALABAMA

CITY           SKY/WX    TMP DP  RH WIND       PRES   REMARKS
MOBILE         PTCLDY    68  64  87 CALM      29.98R
6HR MIN TEMP:  66; 6HR MAX TEMP:  71;

BROOKLEY FIELD CLEAR     68  64  87 N6        29.99R
6HR MIN TEMP:  67; 6HR MAX TEMP:  71;

EVERGREEN      PTCLDY    65  63  93 CALM      30.01R FOG
6HR MIN TEMP:  63; 6HR MAX TEMP:  67;

$$

ALZ049-050-065>069-281300-
SOUTHEAST ALABAMA

CITY           SKY/WX    TMP DP  RH WIND       PRES   REMARKS
DOTHAN         CLOUDY    73  69  87 E9        30.04R
6HR MIN TEMP:  72; 6HR MAX TEMP:  73;

OZARK          MOCLDY    71  69  95 NE6       30.01R
6HR MIN TEMP:  69; 6HR MAX TEMP:  71;

TROY           PTCLDY    68  66  93 E3        30.03R
6HR MIN TEMP:  67; 6HR MAX TEMP:  72;

EUFAULA        MOCLDY    74  71  91 N3        30.03R
6HR MIN TEMP:  72; 6HR MAX TEMP:  75;

$$



USA.gov is the U.S. government's official web portal to all federal, state and local government web resources and services.